FENGYUN 1C DEB, 30938

Orbit data source: Space-Track

FENGYUN 1C DEB, 30938 is space debris in SSO originally from a launch on Mon, 10 May 1999 UTC launched from the Taiyaun Space Center, China (TSC). Fengyun 1C debris stems from the Chinese weather satellite Fengyun-1C, which was intentionally destroyed by a Chinese anti-satellite missile in 2007. This event dramatically increased the amount of space debris, with thousands of trackable fragments posing hazards to satellites and human spaceflight. The Fengyun 1C debris cloud has become a focal point in discussions about space sustainability and the need for international regulations to prevent the creation of new debris.

Loading next visibility...
Identifier
30938, 1999-025BAC
Orbit
SSO
Country
Flag of CNCN / PRC
Related business
Manufacturer
Unknown
Mission
Spacecraft
Bus & Motor
Unknown
Mass
Unknown
Launch date (UTC)
1999-05-10 (27 years ago)
Launch vehicle
Unknown
Launch site
Taiyaun Space Center, China (TSC)
Object type
Payload
Rocket body
Debris
Shape & HBR
Unknown shape, 0.1 m
Radar Cross Section
Small (<0.1 m²)

Expand to show TLE details & history
Last TLE update: 11 hours ago

TLE from 11 hours ago
0 FENGYUN 1C DEB
1 30938U 99025BAC 26169.51325678  .00000445  00000-0  22624-3 0  9991
2 30938  98.5819 182.4764 0046646 157.8910 355.7694 14.20096580997845
Epoch: 2026-06-18T12:19Z
TLE epoch observation values (Epoch: 2026-06-18T12:19:05.385Z)
Latitude
26.09643°
Longitude
-84.83499°
Altitude
794.683 km
Speed
7.476 km/s
True Right ascension
00h 26m 46s
True Declination
25° 57' 42"
Sunlit
Object was in daylight at epoch
Visualization orbit readout
Latitude
Unknown
Longitude
Unknown
Altitude
Unknown
Speed
Unknown
Apparent Right ascension
Unknown
Apparent Declination
Unknown
Sunlit
N/A
Visualization observer readout
Local Sidereal Time
10:04:42
Azimuth
Unknown
Elevation
Unknown
Doppler factor
Unknown
Orbital elements
Apogee altitude
855.765 km
Perigee altitude
788.592 km
Semi-major axis
7,200.315 km
Eccentricity
0.00466
Inclination
98.5819°
RAAN
182.4764°
Arg. of periapsis
157.891°
True anomaly
355.72974°
Mean anomaly
355.7694°
Eccentric anomaly
355.74959°
Mean motion
3.55235 °/min
Orbital period
101.34 mins
BSTAR
0.00022624
Loading maneuver chart data...
Computing Atmospheric mass density...

Documentation

Showing up to 5 results
|